Location: ???????
(56.2167°N, 38.0500°E)
Time: 07:38:12
(UTC+00:00)

Cosmos 2322 - Pass Details

Date: 19 May 2025
Orbit: 839 x 854 km, 71.0° (Epoch: 23 June)

Event Time Altitude Azimuth Distance (km) Brightness Sun altitude
Rises 22:12:09 0° 324° (NW) 3,416 7.5 -13.1°
Reaches altitude 10° 22:14:36 10° 323° (NW) 2,479 6.7 -13.1°
Maximum altitude 22:20:17 74° 240° (WSW) 886 3.7 -12.9°
Drops below altitude 10° 22:25:57 10° 156° (SSE) 2,475 5.7 -12.7°
Enters shadow 22:26:03 10° 156° (SSE) 2,515 5.7 -12.7°
